Tracking 35048 objects as of 19-Aug-2026
HD Live streaming from Space Station
objects crossing your sky now

ONEWEB-0257

Track ONEWEB-0257 now!
10-day predictions
ONEWEB-0257 is classified as:


NORAD ID: 48975
Int'l Code: 2021-061J
Launch date: July 1, 2021
Source: United Kingdom (UK)
Launch site: VOSTOCHNY COSMODROME (VOSTO)
Your satellite tracking list
Your tracking list is empty




NASA's NSSDC Master Catalog

Two Line Element Set (TLE):
1 48975U 21060J   26230.95224740  .00000138  00000-0  32670-3 0  9991
2 48975  87.9099 216.3027 0002219  87.4492 272.6893 13.16595984247849
Source of the keplerian elements: AFSPC